This demonstration page uses our WeatherBlox Daily Observations layout. Learn more.

Left ArrowRight Arrow

39.08367, -84.50855

Hourly Observations for September 17, 2021

Temp ( °F °C ) Dew Point ( °F °C ) Humidity (%) Winds ( mph kmh ) Pressure ( in mb ) Visibility ( mi km ) Precip ( " mm )
12:12 am 00:12 Mostly Clear with Mist and Fog 64 17.8 63 17.2 96 96 N N/A 30.10 1019 5 8 N/A
12:53 am 00:53 Clear 64 17.8 63 17.2 96 96 N N/A 30.10 1019 10 16 N/A
1:53 am 01:53 Clear 63 17.2 63 17.2 100 100 N N/A 30.09 1019 10 16 N/A
2:17 am 02:17 Mostly Clear 62 16.7 62 16.7 100 100 N N/A 30.09 1019 8 13 N/A
2:53 am 02:53 Mostly Clear 62 16.7 61 16.1 96 96 N N/A 30.08 1019 9 14 N/A
3:09 am 03:09 Mostly Cloudy with Mist and Fog 62 16.7 61 16.1 96 96 N N/A 30.08 1019 3 5 N/A
3:22 am 03:22 Partly Cloudy 62 16.7 61 16.1 96 96 N N/A 30.08 1019 9 14 N/A
3:53 am 03:53 Mostly Clear 62 16.7 61 16.1 96 96 N N/A 30.07 1018 10 16 N/A
4:13 am 04:13 Mostly Cloudy with Mist and Fog 63 17.2 62 16.7 97 97 N N/A 30.08 1019 6 10 N/A
4:39 am 04:39 Partly Cloudy 62 16.7 62 16.7 100 100 N N/A 30.09 1019 8 13 N/A
4:53 am 04:53 Clear 62 16.7 61 16.1 96 96 ENE 3 6 30.09 1019 10 16 N/A
5:09 am 05:09 Partly Cloudy 62 16.7 61 16.1 96 96 NE 3 6 30.10 1019 7 11 N/A
5:13 am 05:13 Mostly Cloudy 62 16.7 62 16.7 100 100 NNE 3 6 30.10 1019 7 11 N/A
5:25 am 05:25 Partly Cloudy 62 16.7 62 16.7 100 100 NNE 3 6 30.10 1019 10 16 N/A
5:53 am 05:53 Mostly Clear 62 16.7 61 16.1 96 96 N N/A 30.11 1020 10 16 N/A
6:53 am 06:53 Clear with Patchy Fog 63 17.2 62 16.7 97 97 N 3 6 30.12 1020 7 11 N/A
7:53 am 07:53 Sunny with Patchy Fog 63 17.2 62 16.7 97 97 N N/A 30.13 1020 10 16 N/A
8:53 am 08:53 Sunny 68 20 65 18.3 90 90 N N/A 30.14 1021 10 16 N/A
9:53 am 09:53 Sunny 71 21.7 67 19.4 87 87 N N/A 30.15 1021 10 16 N/A
10:53 am 10:53 Sunny 77 25 69 20.6 77 77 N N/A 30.15 1021 10 16 N/A
11:53 am 11:53 Mostly Sunny 81 27.2 70 21.1 69 69 SSW 3 6 30.15 1021 10 16 N/A
12:53 pm 12:53 Mostly Cloudy 85 29.4 68 20 57 57 N N/A 30.13 1020 10 16 N/A
1:53 pm 13:53 Mostly Cloudy with Light Rain 83 28.3 68 20 61 61 WSW 5 7 30.12 1020 10 16 0.00 0.00
2:53 pm 14:53 Partly Cloudy 83 28.3 69 20.6 63 63 S 3 6 30.10 1019 10 16 0.00 0.00
3:53 pm 15:53 Mostly Sunny 85 29.4 68 20 57 57 SSE 9 15 30.08 1019 10 16 N/A
4:53 pm 16:53 Sunny 83 28.3 69 20.6 63 63 S 6 9 30.08 1019 10 16 N/A
5:53 pm 17:53 Cloudy 81 27.2 73 22.8 77 77 N N/A 30.07 1018 10 16 N/A
6:53 pm 18:53 Cloudy 83 28.3 70 21.1 65 65 S 3 6 30.07 1018 10 16 N/A
7:34 pm 19:34 Mostly Sunny 79 26.1 72 22.2 79 79 N N/A 30.06 1018 10 16 N/A
7:53 pm 19:53 Mostly Clear 76 24.4 72 22.2 88 88 N N/A 30.06 1018 10 16 N/A
8:53 pm 20:53 Clear 72 22.2 69 20.6 91 91 N N/A 30.08 1019 10 16 N/A
9:53 pm 21:53 Clear 70 21.1 68 20 93 93 N N/A 30.10 1019 10 16 N/A
10:53 pm 22:53 Clear 69 20.6 68 20 96 96 N N/A 30.10 1019 10 16 N/A
11:53 pm 23:53 Clear 68 20 68 20 100 100 N N/A 30.11 1020 10 16 N/A

Powered by AerisWeather